Regional Weather Roundup
Issued by NWS

Home | Current Version | Previous Version | Text Only | Print | Product List | Glossary On
Versions: 1 2 3 4 5 6 7 8 9 10 11 12 13 14 15 16 17 18 19 20 21 22 23 24 25 26 27 28 29 30 31 32 33 34 35 36 37 38 39 40 41 42 43 44 45 46 47 48 49 50
000
ASUS43 KLOT 201910
RWRIL

ILLINOIS REGIONAL WEATHER ROUNDUP
NATIONAL WEATHER SERVICE CHICAGO/ROMEOVILLE IL
200 PM CDT SUN APR 20 2014

NOTE: "FAIR" INDICATES FEW OR NO CLOUDS BELOW 12,000 FEET WITH NO
SIGNIFICANT WEATHER AND/OR OBSTRUCTIONS TO VISIBILITY.

* THESE STATIONS ARE NOT UNDER NWS QUALITY CONTROL. THEY ALSO MAY NOT
  REPORT WEATHER SUCH AS PRECIPITATION OR FOG.

ILZ001-002-007-009-015-016-024-202000-
NORTHWEST ILLINOIS

CITY           SKY/WX    TMP DP  RH WIND       PRES   REMARKS
MOLINE         SUNNY     81  45  28 SW9G20    30.06F HX  80
STERLING*      MOSUNNY   81  45  28 W13       30.08F
SAVANNA*       SUNNY     81  42  25 S13       30.06F
$$

ILZ003-004-008-010-011-017-018-202000-
NORTH CENTRAL ILLINOIS

CITY           SKY/WX    TMP DP  RH WIND       PRES   REMARKS
ROCKFORD       PTSUNNY   78  41  26 W8        30.10F
FREEPORT*      MOSUNNY   79  43  27 SW8       30.11F
ROCHELLE*      MOSUNNY   80  39  23 SW16      30.09F
DE KALB*       SUNNY     76  41  29 S16       30.12F
PERU*          MOSUNNY   76  42  29 SW12G17   30.11F
$$

ILZ005-006-012>014-019>023-202000-
NORTHEAST ILLINOIS

CITY           SKY/WX    TMP DP  RH WIND       PRES   REMARKS
CHICAGO-OHARE  PTSUNNY   75  39  27 SW13      30.13F
CHICAGO-MIDWAY PTSUNNY   75  40  28 SW12G18   30.14F
AURORA         SUNNY     77  41  27 S9        30.12F
LANSING*       SUNNY     75  37  25 S10G17    30.15F
WAUKEGAN       MOSUNNY   67  39  35 SE12      30.12F
DUPAGE AIRPORT SUNNY     77  41  27 SW13      30.12F
KANKAKEE*      PTSUNNY   74  42  31 S8        30.15F
WHEELING       MOSUNNY   75  41  29 S13       30.14F
MORRIS*        MOSUNNY   78  28  16 SW12G17   30.12F
ROMEOVILLE*    SUNNY     75  37  25 S10G16    30.13F
NORTHERLY ISL    N/A     59  43  55 E6          N/A
$$

LMZ740>746-202000-
SOUTHERN LAKE MICHIGAN

STATION/POSITION SKY/WX   TEMP    WIND        PRES    VSBY  WAVE
                          AIR SEA DIR/SP/G                  HT/PER
                          (F)     (DEG/KT/KT) (MB)    (MI)  (FT/S)
WAUKEGAN HARBOR            51     180/  9/ 11 1021.7F
HARRISON CRIB              61     130/ 14/ 16   N/A
BURNHAM HARBOR             59     100/  7/ 12   N/A
CALUMET HARBOR             72     190/  9/ 14 1021.6S
MICHIGAN CITY              64     290/  2/  3   N/A
$$

ILZ025>027-034>036-040-047-049-050-058-095>099-202000-
WEST-CENTRAL ILLINOIS

CITY           SKY/WX    TMP DP  RH WIND       PRES   REMARKS
QUINCY         MOSUNNY   79  48  33 SW14G21   30.09F
GALESBURG*     MOSUNNY   79  49  35 S14G22    30.09F
MACOMB*        SUNNY     81  44  26 S17G23    30.11F HX  80
JACKSONVILLE*  SUNNY     80  42  25 SW10G16   30.12F
PITTSFIELD*    SUNNY     80  45  29 S13       30.12F
$$

ILZ028>032-037-038-041>044-048-051>054-059>061-202000-
CENTRAL ILLINOIS

CITY           SKY/WX    TMP DP  RH WIND       PRES   REMARKS
PONTIAC        PTSUNNY   77  37  24 S7G17     30.14F
BLOOMINGTON    MOSUNNY   76  39  26 S12       30.15F
DECATUR        SUNNY     76  41  28 S9        30.15F
PEORIA         MOSUNNY   79  43  27 SW13G20   30.11F
LACON*         PTSUNNY   77  45  32 SW9       30.10F
LINCOLN*       SUNNY     80  40  23 S9        30.11F
SPRINGFIELD    SUNNY     80  39  23 S8G20     30.13F
TAYLORVILLE    SUNNY     75  43  31 SW14      30.14F
$$

ILZ033-039-045-046-055>057-062-063-202000-
EAST-CENTRAL ILLINOIS

CITY           SKY/WX    TMP DP  RH WIND       PRES   REMARKS
CHAMPAIGN      MOSUNNY   77  39  25 VRB7      30.16F
RANTOUL*       MOSUNNY   78  33  19 CALM      30.16F
MATTOON        PTSUNNY   72  43  35 S8        30.17F
PARIS*         MOSUNNY   74  40  28 CALM      30.18F
$$

ILZ079-100>102-202000-
SOUTHWEST ILLINOIS

CITY           SKY/WX    TMP DP  RH WIND       PRES   REMARKS
ALTON          SUNNY     77  37  24 S12       30.14F
BELLEVILLE     MOSUNNY   78  45  31 CALM      30.14F
CAHOKIA*       SUNNY     79  44  28 S7        30.13F
SPARTA*        SUNNY     75  43  31 SW8       30.16F
$$

ILZ064>066-069>071-074>076-080>082-084>086-088>090-092>094-202000-
SOUTH-CENTRAL ILLINOIS

CITY           SKY/WX    TMP DP  RH WIND       PRES   REMARKS
CARBONDALE     SUNNY     76  44  32 S12       30.16F
CAIRO*         MOSUNNY   80  42  25 SW8       30.17F
MARION         PTSUNNY   77  41  27 S6        30.17F
MT. VERNON     SUNNY     75  45  33 SW5       30.18F
CENTRALIA*       N/A     75  41  29 CALM      30.16F
SALEM*         SUNNY     76  46  34 S6        30.17F
METROPOLIS*    PTSUNNY   77  34  20 S7        30.16F
$$

ILZ067-068-072-073-078-083-087-091-202000-
SOUTHEAST ILLINOIS

CITY           SKY/WX    TMP DP  RH WIND       PRES   REMARKS
FAIRFIELD*     PTSUNNY   75  43  31 S6        30.18F
HARRISBURG*    PTSUNNY   76  40  26 E5        30.17F
ROBINSON*      PTSUNNY   75  45  35 S7        30.19F
CARMI*         CLOUDY    75  42  30 CALM      30.18F
$$

ABBREVIATIONS USED IN REMARKS
   TC - TEMPERATURE IN CELSIUS
  WCI - WIND CHILL INDEX
   HX - HEAT INDEX
  VSB - VISIBILITY
$$




USA.gov is the U.S. government's official web portal to all federal, state and local government web resources and services.